GW5816 Weather Reports


time (UTC)temp
C
wind
direction
speed
KPH
gust
KPH
rain 1hr
cm
rain 24hr
cm
rain mn
cm
humidity
%
barometer
mb
20260506051143 21 229 0.0 3.2 0.00 0.00 0.00 50 1019.0
20260506050644 21 290 1.6 4.8 0.00 0.00 0.00 50 1019.0
20260506050144 21 274 3.2 3.2 0.00 0.00 0.00 50 1019.0
20260506044642 21 285 0.0 3.2 0.00 0.00 0.00 51 1019.0
20260506044142 21 276 1.6 6.4 0.00 0.00 0.00 51 1019.0
20260506043646 21 247 0.0 3.2 0.00 0.00 0.00 51 1019.0
20260506043143 21 274 0.0 4.8 0.00 0.00 0.00 52 1019.0
20260506042644 21 269 0.0 3.2 0.00 0.00 0.00 52 1019.0
20260506042142 21 309 4.8 4.8 0.00 0.00 0.00 52 1019.0
20260506041644 21 260 3.2 3.2 0.00 0.00 0.00 52 1019.0
20260506041143 21 303 3.2 4.8 0.00 0.00 0.00 53 1019.0
20260506040643 21 282 0.0 4.8 0.00 0.00 0.00 52 1019.0
20260506040142 20 288 1.6 3.2 0.00 0.00 0.00 52 1019.0
20260506035641 21 283 1.6 1.6 0.00 0.00 0.00 52 1019.0
20260506035142 21 186 1.6 4.8 0.00 0.00 0.00 51 1019.0
20260506034642 21 296 0.0 4.8 0.00 0.00 0.00 50 1019.0
20260506034149 21 186 0.0 4.8 0.00 0.00 0.00 50 1019.0
20260506033641 21 224 0.0 4.8 0.00 0.00 0.00 50 1019.0
20260506033142 21 290 0.0 4.8 0.00 0.00 0.00 49 1019.0
20260506032643 21 265 1.6 3.2 0.00 0.00 0.00 48 1019.0
20260506032141 21 302 4.8 4.8 0.00 0.00 0.00 48 1019.0
20260506031643 21 256 0.0 4.8 0.00 0.00 0.00 49 1019.0
20260506031145 21 280 0.0 4.8 0.00 0.00 0.00 49 1019.0
20260506030645 20 315 3.2 4.8 0.00 0.00 0.00 50 1019.0
20260506030145 20 302 0.0 3.2 0.00 0.00 0.00 50 1019.0
20260506025649 20 289 0.0 3.2 0.00 0.00 0.00 52 1019.0
20260506025142 20 255 0.0 1.6 0.00 0.00 0.00 53 1019.0
20260506024643 20 292 3.2 3.2 0.00 0.00 0.00 52 1019.0
20260506024144 20 287 1.6 3.2 0.00 0.00 0.00 52 1019.0
20260506023641 20 315 0.0 3.2 0.00 0.00 0.00 51 1019.0
20260506023141 21 288 1.6 3.2 0.00 0.00 0.00 50 1019.0
20260506022644 21 282 1.6 3.2 0.00 0.00 0.00 48 1019.0
20260506022143 21 212 0.0 1.6 0.00 0.00 0.00 48 1019.0
20260506021642 21 269 1.6 3.2 0.00 0.00 0.00 47 1019.0
20260506021145 21 269 0.0 3.2 0.00 0.00 0.00 48 1019.0
20260506020643 21 293 0.0 3.2 0.00 0.00 0.00 47 1019.0
20260506020144 21 293 1.6 3.2 0.00 0.00 0.00 47 1019.0
20260506015642 21 277 1.6 3.2 0.00 0.00 0.00 46 1019.0
20260506015141 21 260 0.0 3.2 0.00 0.00 0.00 45 1019.0
20260506014644 21 89 0.0 3.2 0.00 0.00 0.00 45 1019.0
20260506013652 21 276 4.8 4.8 0.00 0.00 0.00 45 1019.0
20260506013142 21 299 1.6 8.0 0.00 0.00 0.00 46 1019.0
20260506012643 21 268 3.2 3.2 0.00 0.00 0.00 46 1019.0
20260506012143 21 195 0.0 4.8 0.00 0.00 0.00 45 1019.0
20260506011643 21 276 4.8 4.8 0.00 0.00 0.00 46 1019.0
20260506011141 21 269 0.0 3.2 0.00 0.00 0.00 46 1019.0
20260506010642 22 225 1.6 3.2 0.00 0.00 0.00 46 1019.0
20260506010147 22 269 0.0 3.2 0.00 0.00 0.00 45 1019.0
20260506005642 22 289 1.6 3.2 0.00 0.00 0.00 44 1019.0
20260506005144 22 265 1.6 3.2 0.00 0.00 0.00 44 1019.0
20260506004644 22 246 0.0 3.2 0.00 0.00 0.00 45 1019.0
20260506004145 22 269 1.6 4.8 0.00 0.00 0.00 44 1019.0
20260506003643 23 264 0.0 3.2 0.00 0.00 0.00 43 1019.0
20260506003145 23 271 1.6 3.2 0.00 0.00 0.00 43 1019.0
20260506002645 23 189 0.0 3.2 0.00 0.00 0.00 42 1019.0
20260506002145 23 264 3.2 4.8 0.00 0.00 0.00 42 1019.0
20260506001643 23 232 1.6 4.8 0.00 0.00 0.00 41 1019.0
20260506001143 23 296 0.0 8.0 0.00 0.00 0.00 41 1019.0
20260506000643 23 245 1.6 6.4 0.00 0.00 0.00 42 1019.0
20260506000141 23 269 0.0 4.8 0.00 0.00 0.00 42 1019.0
20260505235641 23 291 6.4 8.0 0.00 0.00 0.00 42 1019.0
20260505235144 23 269 0.0 6.4 0.00 0.00 0.00 42 1019.0
20260505234643 24 280 0.0 3.2 0.00 0.00 0.00 43 1019.0
20260505234142 24 274 3.2 3.2 0.00 0.00 0.00 42 1019.0
20260505233646 23 286 3.2 8.0 0.00 0.00 0.00 42 1019.0
20260505233142 24 250 3.2 8.0 0.00 0.00 0.00 42 1019.0
20260505232641 24 201 1.6 3.2 0.00 0.00 0.00 42 1019.0
20260505232142 24 269 0.0 4.8 0.00 0.00 0.00 42 1019.0
20260505231643 24 293 4.8 9.7 0.00 0.00 0.00 42 1019.0
20260505231143 24 251 3.2 4.8 0.00 0.00 0.00 42 1019.0
20260505230644 24 266 4.8 4.8 0.00 0.00 0.00 41 1019.0
20260505230144 25 273 6.4 12.9 0.00 0.00 0.00 40 1019.0
20260505225645 25 285 6.4 6.4 0.00 0.00 0.00 41 1019.0
20260505225144 25 265 1.6 6.4 0.00 0.00 0.00 40 1019.0
20260505224641 25 267 1.6 4.8 0.00 0.00 0.00 40 1019.0
20260505224142 25 306 4.8 4.8 0.00 0.00 0.00 40 1019.0
20260505223643 25 274 3.2 9.7 0.00 0.00 0.00 40 1019.0
20260505223144 25 286 3.2 9.7 0.00 0.00 0.00 39 1019.0
20260505222641 25 275 3.2 11.3 0.00 0.00 0.00 39 1019.0
20260505222144 25 286 9.7 12.9 0.00 0.00 0.00 38 1019.0
20260505221642 25 292 3.2 11.3 0.00 0.00 0.00 37 1019.0
20260505221142 25 195 1.6 6.4 0.00 0.00 0.00 37 1019.0
20260505220643 25 327 0.0 14.5 0.00 0.00 0.00 37 1019.0
20260505220143 26 275 4.8 8.0 0.00 0.00 0.00 37 1019.0
20260505215644 26 311 0.0 8.0 0.00 0.00 0.00 36 1019.0
20260505215143 26 301 1.6 8.0 0.00 0.00 0.00 34 1019.0
20260505214644 26 276 4.8 8.0 0.00 0.00 0.00 35 1019.0
20260505214143 26 302 9.7 9.7 0.00 0.00 0.00 36 1019.0
20260505213644 26 289 8.0 11.3 0.00 0.00 0.00 35 1020.0
20260505213146 26 143 1.6 4.8 0.00 0.00 0.00 34 1020.0
20260505212646 26 335 0.0 9.7 0.00 0.00 0.00 38 1019.0
20260505212145 26 157 3.2 12.9 0.00 0.00 0.00 36 1020.0
20260505211644 26 255 1.6 4.8 0.00 0.00 0.00 35 1020.0
20260505211141 26 242 3.2 19.3 0.00 0.00 0.00 37 1020.0
20260505210643 26 281 6.4 11.3 0.00 0.00 0.00 35 1020.0
20260505210143 26 315 0.0 8.0 0.00 0.00 0.00 35 1020.0
20260505205643 25 319 1.6 6.4 0.00 0.00 0.00 36 1020.0
20260505205143 26 271 4.8 6.4 0.00 0.00 0.00 36 1020.0
20260505204644 25 262 4.8 16.1 0.00 0.00 0.00 36 1020.0
20260505204141 26 287 4.8 12.9 0.00 0.00 0.00 35 1020.0
20260505203643 26 170 3.2 14.5 0.00 0.00 0.00 35 1020.0
20260505203145 25 98 1.6 11.3 0.00 0.00 0.00 35 1020.0
20260505202644 25 278 4.8 20.9 0.00 0.00 0.00 37 1020.0
20260505202145 26 245 9.7 9.7 0.00 0.00 0.00 35 1020.0
20260505201645 26 317 16.1 16.1 0.00 0.00 0.00 34 1020.0
20260505201143 25 235 0.0 12.9 0.00 0.00 0.00 36 1021.0
20260505200643 26 263 6.4 11.3 0.00 0.00 0.00 36 1021.0
20260505200146 26 289 4.8 6.4 0.00 0.00 0.00 35 1021.0
20260505195644 26 120 3.2 9.7 0.00 0.00 0.00 34 1021.0
20260505195143 25 286 4.8 14.5 0.00 0.00 0.00 35 1021.0
20260505194644 25 275 3.2 11.3 0.00 0.00 0.00 35 1021.0
20260505194144 25 276 4.8 9.7 0.00 0.00 0.00 35 1021.0
20260505193644 25 304 3.2 9.7 0.00 0.00 0.00 36 1021.0
20260505193144 25 292 11.3 11.3 0.00 0.00 0.00 35 1021.0
20260505192648 25 102 3.2 14.5 0.00 0.00 0.00 34 1021.0
20260505192144 26 299 4.8 11.3 0.00 0.00 0.00 35 1021.0
20260505191644 26 284 3.2 14.5 0.00 0.00 0.00 37 1021.0
20260505191143 25 256 6.4 8.0 0.00 0.00 0.00 39 1021.0
20260505190644 25 276 9.7 11.3 0.00 0.00 0.00 36 1021.0
20260505190144 26 131 8.0 9.7 0.00 0.00 0.00 35 1021.0
20260505185642 26 294 6.4 8.0 0.00 0.00 0.00 36 1021.0
20260505185143 26 289 6.4 11.3 0.00 0.00 0.00 36 1021.0
20260505184642 25 275 1.6 11.3 0.00 0.00 0.00 35 1021.0
20260505184144 26 320 6.4 8.0 0.00 0.00 0.00 35 1022.0
20260505183643 25 292 4.8 6.4 0.00 0.00 0.00 37 1022.0
20260505183143 25 284 6.4 12.9 0.00 0.00 0.00 39 1022.0
20260505182643 25 277 3.2 6.4 0.00 0.00 0.00 37 1022.0
20260505182144 25 286 8.0 12.9 0.00 0.00 0.00 40 1022.0
20260505181644 25 301 6.4 9.7 0.00 0.00 0.00 39 1022.0
20260505181144 25 273 4.8 11.3 0.00 0.00 0.00 40 1022.0
20260505180644 25 265 6.4 11.3 0.00 0.00 0.00 40 1022.0
20260505180144 25 299 1.6 16.1 0.00 0.00 0.00 40 1022.0
20260505175646 25 256 4.8 14.5 0.00 0.00 0.00 39 1022.0
20260505175143 25 283 11.3 12.9 0.00 0.00 0.00 37 1022.0
20260505174645 25 99 4.8 11.3 0.00 0.00 0.00 36 1022.0
20260505174143 25 288 6.4 8.0 0.00 0.00 0.00 37 1022.0
20260505173646 26 262 4.8 6.4 0.00 0.00 0.00 36 1023.0
20260505173143 25 157 3.2 14.5 0.00 0.00 0.00 37 1023.0
20260505172641 25 110 12.9 17.7 0.00 0.00 0.00 36 1023.0
20260505172143 25 220 1.6 20.9 0.00 0.00 0.00 36 1023.0
20260505171643 25 282 9.7 9.7 0.00 0.00 0.00 35 1023.0
20260505171146 25 289 6.4 11.3 0.00 0.00 0.00 36 1023.0
20260505170643 25 203 4.8 4.8 0.00 0.00 0.00 37 1023.0
20260505170144 25 286 8.0 8.0 0.00 0.00 0.00 39 1023.0
20260505165646 23 278 3.2 14.5 0.00 0.00 0.00 41 1023.0
20260505165147 25 268 6.4 12.9 0.00 0.00 0.00 40 1023.0
20260505164646 25 200 3.2 11.3 0.00 0.00 0.00 39 1022.0
20260505164144 25 278 8.0 12.9 0.00 0.00 0.00 40 1023.0
20260505163644 24 88 6.4 9.7 0.00 0.00 0.00 39 1023.0
20260505163143 24 259 6.4 12.9 0.00 0.00 0.00 41 1023.0
20260505162643 25 307 11.3 19.3 0.00 0.00 0.00 40 1023.0
20260505162144 25 269 4.8 9.7 0.00 0.00 0.00 41 1023.0
20260505161645 24 223 4.8 8.0 0.00 0.00 0.00 40 1023.0
20260505161145 25 290 9.7 11.3 0.00 0.00 0.00 39 1023.0
20260505160644 24 211 3.2 9.7 0.00 0.00 0.00 39 1023.0
20260505160143 24 271 4.8 11.3 0.00 0.00 0.00 41 1023.0
20260505153143 25 147 0.0 4.8 0.00 0.00 0.00 41 1023.0
20260505152645 25 280 3.2 6.4 0.00 0.00 0.00 43 1023.0
20260505152143 24 219 0.0 6.4 0.00 0.00 0.00 41 1023.0
20260505151643 24 126 3.2 8.0 0.00 0.00 0.00 41 1023.0
20260505151144 24 284 1.6 4.8 0.00 0.00 0.00 39 1023.0
20260505150641 23 278 0.0 8.0 0.00 0.00 0.00 44 1024.0
20260505150144 22 299 8.0 8.0 0.00 0.00 0.00 49 1024.0
20260505140644 19 284 1.6 4.8 0.00 0.00 0.00 57 1024.0
20260505140145 20 88 4.8 4.8 0.00 0.00 0.00 55 1023.0
20260505130144 15 277 6.4 8.0 0.00 0.00 0.00 74 1023.0
20260505124643 13 260 0.0 1.6 0.00 0.00 0.00 82 1023.0
20260505124143 13 293 1.6 4.8 0.00 0.00 0.00 80 1023.0
20260505123645 12 283 3.2 3.2 0.00 0.00 0.00 84 1023.0
20260505123146 12 272 1.6 3.2 0.00 0.00 0.00 87 1023.0
20260505122643 11 312 1.6 3.2 0.00 0.00 0.00 95 1023.0
20260505122144 10 319 1.6 1.6 0.00 0.00 0.00 97 1023.0
20260505121643 10 322 0.0 0.0 0.00 0.00 0.00 97 1023.0
20260505121145 10 297 0.0 0.0 0.00 0.00 0.00 98 1023.0
20260505120645 10 269 0.0 0.0 0.00 0.00 0.00 98 1022.0
20260505120146 10 217 0.0 0.0 0.00 0.00 0.00 98 1023.0
20260505115643 9 230 0.0 0.0 0.00 0.00 0.00 98 1022.0
20260505115145 8 315 0.0 0.0 0.00 0.00 0.00 98 1022.0
20260505114646 8 282 0.0 0.0 0.00 0.00 0.00 98 1022.0
20260505114143 8 282 0.0 1.6 0.00 0.00 0.00 98 1022.0
20260505113645 8 297 0.0 0.0 0.00 0.00 0.00 98 1022.0
20260505113144 8 242 0.0 0.0 0.00 0.00 0.00 98 1022.0
20260505112644 8 242 0.0 0.0 0.00 0.00 0.00 98 1022.0
20260505112141 8 224 0.0 0.0 0.00 0.00 0.00 98 1022.0
20260505111644 8 224 0.0 0.0 0.00 0.00 0.00 97 1022.0
20260505111143 8 230 0.0 0.0 0.00 0.00 0.00 97 1022.0
20260505110645 8 297 0.0 0.0 0.00 0.00 0.00 97 1022.0
20260505110144 8 242 0.0 1.6 0.00 0.00 0.00 97 1022.0
20260505102145 8 302 0.0 1.6 0.00 0.00 0.00 97 1021.0
20260505101643 8 224 0.0 0.0 0.00 0.00 0.00 96 1021.0
20260505101144 8 242 0.0 0.0 0.00 0.00 0.00 96 1022.0
20260505100641 8 242 0.0 0.0 0.00 0.00 0.00 96 1021.0
20260505100144 8 242 0.0 0.0 0.00 0.00 0.00 96 1021.0
20260505095642 8 283 0.0 0.0 0.00 0.00 0.00 96 1021.0
20260505095145 8 283 0.0 0.0 0.00 0.00 0.00 96 1021.0
20260505094643 8 310 0.0 1.6 0.00 0.00 0.00 96 1021.0
20260505094144 8 283 0.0 0.0 0.00 0.00 0.00 95 1021.0
20260505093641 8 352 0.0 0.0 0.00 0.00 0.00 95 1021.0
20260505093143 8 214 0.0 1.6 0.00 0.00 0.00 95 1021.0
20260505092645 8 327 0.0 3.2 0.00 0.00 0.00 95 1021.0
20260505092145 8 230 0.0 0.0 0.00 0.00 0.00 95 1021.0
20260505091643 8 230 0.0 0.0 0.00 0.00 0.00 95 1021.0
20260505091146 8 240 0.0 0.0 0.00 0.00 0.00 95 1021.0
20260505090646 8 315 0.0 0.0 0.00 0.00 0.00 94 1021.0
20260505090143 8 315 0.0 0.0 0.00 0.00 0.00 94 1021.0
20260505085643 8 242 0.0 0.0 0.00 0.00 0.00 94 1021.0
20260505085144 8 193 0.0 0.0 0.00 0.00 0.00 94 1021.0
20260505084646 8 218 0.0 0.0 0.00 0.00 0.00 93 1021.0
20260505084142 9 293 0.0 0.0 0.00 0.00 0.00 93 1021.0
20260505083641 9 321 0.0 0.0 0.00 0.00 0.00 93 1021.0
20260505083146 9 321 0.0 1.6 0.00 0.00 0.00 93 1021.0
20260505082641 9 269 0.0 0.0 0.00 0.00 0.00 93 1021.0
20260505082146 9 283 0.0 0.0 0.00 0.00 0.00 93 1021.0
20260505081643 9 288 1.6 1.6 0.00 0.00 0.00 92 1021.0
20260505081145 9 310 3.2 3.2 0.00 0.00 0.00 93 1021.0
20260505080644 9 322 0.0 0.0 0.00 0.00 0.00 92 1021.0
20260505080145 10 240 0.0 1.6 0.00 0.00 0.00 92 1021.0
20260505075644 9 246 0.0 0.0 0.00 0.00 0.00 91 1021.0
20260505075144 10 154 0.0 0.0 0.00 0.00 0.00 91 1021.0
20260505074643 10 322 0.0 1.6 0.00 0.00 0.00 91 1021.0
20260505074143 10 322 0.0 0.0 0.00 0.00 0.00 91 1021.0
20260505073643 10 326 0.0 0.0 0.00 0.00 0.00 91 1021.0
20260505073143 10 205 0.0 0.0 0.00 0.00 0.00 90 1021.0
20260505072643 10 256 0.0 1.6 0.00 0.00 0.00 90 1021.0
20260505072141 10 352 0.0 1.6 0.00 0.00 0.00 90 1021.0
20260505071642 10 154 0.0 3.2 0.00 0.00 0.00 90 1021.0
20260505071143 10 235 0.0 0.0 0.00 0.00 0.00 89 1021.0
20260505070645 10 205 0.0 0.0 0.00 0.00 0.00 89 1021.0
20260505070143 10 306 1.6 1.6 0.00 0.00 0.00 89 1021.0
20260505065642 10 284 0.0 1.6 0.00 0.00 0.00 89 1021.0
20260505065142 10 249 0.0 3.2 0.00 0.00 0.00 88 1021.0
20260505064643 10 309 0.0 0.0 0.00 0.00 0.00 88 1021.0
20260505064144 10 309 0.0 3.2 0.00 0.00 0.00 88 1021.0
20260505063643 10 217 0.0 0.0 0.00 0.00 0.00 87 1021.0
20260505063144 10 217 0.0 0.0 0.00 0.00 0.00 87 1021.0
20260505062645 10 297 0.0 0.0 0.00 0.00 0.00 87 1021.0
20260505062143 10 298 0.0 1.6 0.00 0.00 0.00 88 1021.0
20260505061644 10 315 0.0 0.0 0.00 0.00 0.00 87 1021.0
20260505061144 10 242 0.0 0.0 0.00 0.00 0.00 87 1021.0
20260505060643 11 309 0.0 1.6 0.00 0.00 0.00 87 1021.0
20260505060144 11 230 0.0 0.0 0.00 0.00 0.00 87 1021.0